Flag for Australia Weather past 2 weeks in Brisbane, Queensland, Australia

Now
72 °F

Passing clouds.


Feels Like: 76 °F
Forecast: 56 / 76 °F
Wind: 8 mph from Northeast

Location: Brisbane Airport M. O

Current Time: May 28, 2015 at 4:31:19 PM

Latest Report: May 28, 2015 at 4:00 PM


Visibility: N/A

Pressure: 30.15 "Hg

Humidity: 61%

Dew point: 57 °F

Location of BrisbaneLocation

Historic Weather in Brisbane — Graph

°F

Brisbane temperature yesterday

Maximum temperature yesterday: 70 °F (at 10:30 AM)
Minimum temperature yesterday: 57 °F (at 3:00 AM)
Average temperature yesterday: 63 °F

Past Weeks' High & Low Weather Summary

 TemperatureHumidityPressure
High77 °F (May 21, 12:30 PM)100% (May 17, 5:00 AM)30.42 "Hg (May 17, 5:00 AM)
Low46 °F (May 14, 5:30 AM)28% (May 14, 2:30 PM)29.92 "Hg (May 13, 3:00 PM)
Average64 °F73%30.22 "Hg
* Reported May 13 3:00 PM — May 28 3:00 PM, Brisbane, Weather by CustomWeather, © 2015

Note: Actual official high and low records may vary slightly from our data, if they occured in-between our weather recording intervals... More about our weather records

Advertising

Brisbane weather history for previous 24 hours

 ConditionsComfort  
Time TempWeatherWind HumidityBarometerVisibility
3:00 PM
Thu, May 28
72 °FPassing clouds.9 mph65%30.15 "HgN/A
2:30 PM73 °FPassing clouds.12 mph61%30.15 "HgN/A
2:00 PM73 °FPassing clouds.10 mph65%30.15 "HgN/A
1:30 PM72 °FPassing clouds.10 mph57%30.18 "HgN/A
1:00 PM73 °FPassing clouds.3 mph53%30.18 "HgN/A
12:30 PM73 °FScattered clouds.3 mph57%30.21 "HgN/A
12:00 PM73 °FScattered clouds.7 mph61%30.21 "HgN/A
11:30 AM72 °FPassing clouds.6 mph65%30.24 "HgN/A
10:00 AM68 °FPassing clouds.8 mph73%30.27 "HgN/A
9:30 AM66 °FPassing clouds.9 mph78%30.27 "HgN/A
9:00 AM64 °FPassing clouds.10 mph83%30.27 "HgN/A
8:30 AM63 °FPassing clouds.12 mph88%30.24 "HgN/A
8:00 AM61 °FCool.9 mph88%30.24 "HgN/A
7:30 AM59 °FPassing clouds.9 mph94%30.24 "HgN/A
7:00 AM57 °FPassing clouds.8 mph94%30.21 "HgN/A
6:30 AM55 °FPassing clouds.8 mph100%30.21 "HgN/A
6:00 AM55 °FPassing clouds.8 mph100%30.21 "HgN/A
5:30 AM57 °FSunny.8 mph94%30.21 "Hg10 mi
5:00 AM57 °FClear.8 mph94%30.18 "Hg10 mi
4:30 AM57 °FClear.9 mph100%30.18 "Hg10 mi
4:00 AM57 °FClear.9 mph94%30.18 "Hg10 mi
3:30 AM59 °FClear.8 mph94%30.18 "Hg10 mi
3:00 AM57 °FClear.9 mph100%30.18 "Hg10 mi
2:30 AM57 °FClear.9 mph94%30.18 "Hg10 mi
2:00 AM59 °FClear.8 mph94%30.18 "Hg10 mi
1:30 AM57 °FClear.7 mph100%30.18 "Hg10 mi
1:00 AM57 °FPassing clouds.6 mph100%30.21 "HgN/A
12:30 AM59 °FPassing clouds.7 mph94%30.21 "HgN/A
12:00 AM61 °FPassing clouds.6 mph94%30.21 "HgN/A
11:30 PM
Wed, May 27
57 °FPassing clouds.7 mph100%30.21 "HgN/A
11:00 PM59 °FPassing clouds.5 mph100%30.21 "HgN/A
10:00 PM61 °FPassing clouds.6 mph94%30.21 "HgN/A
9:30 PM59 °FClear.No wind94%30.21 "Hg10 mi
9:00 PM61 °FPassing clouds.No wind94%30.21 "HgN/A
8:30 PM61 °FPassing clouds.No wind94%30.21 "HgN/A
8:00 PM63 °FPassing clouds.3 mph94%30.21 "HgN/A
7:30 PM64 °FPassing clouds.3 mph88%30.21 "HgN/A
7:00 PM64 °FPassing clouds.5 mph88%30.21 "HgN/A
6:30 PM66 °FPassing clouds.6 mph83%30.18 "HgN/A
6:00 PM64 °FPassing clouds.6 mph88%30.18 "HgN/A
5:30 PM66 °FPassing clouds.5 mph83%30.18 "HgN/A
5:00 PM68 °FPassing clouds.5 mph78%30.18 "HgN/A
4:30 PM68 °FPassing clouds.5 mph73%30.18 "HgN/A
4:00 PM70 °FPassing clouds.6 mph60%30.15 "HgN/A
Weather by CustomWeather, © 2015

See weather overviewHow to use our weather pages